Wind_Speed
35 33 31 31 29 28 30 27 23 25 27 28 28 28 29 30 31 34 37 37 34 33 35 38 41 43 47 43 36 36 37 36 34 32 33 34 33 32 32 32 33 32 29 28 30 30 27 23 21 24 27 28 28 30 30 29 29 29 29 29 29 26
37 36 33 33 34 33 32 29 25 26 26 26 26 26 28 29 30 32 34 34 34 34 34 37 41 44 47 44 37 35 34 33 29 27 28 28 28 28 27 28 30 30 29 28 28 26 22 20 21 25 26 26 27 26 24 23 24 24 24 22 21 21
35 35 35 36 37 36 33 30 28 27 26 24 24 25 26 26 25 28 30 30 32 34 35 38 42 44 46 45 39 35 33 31 26 24 25 26 26 26 25 27 28 29 27 26 24 20 18 18 22 24 24 23 24 21 19 20 22 22 20 20 20 22
33 33 34 34 35 34 31 29 27 26 26 25 25 24 25 24 23 26 29 28 30 31 32 39 43 43 47 48 42 37 35 31 27 27 26 27 28 26 25 26 26 25 23 20 18 17 17 19 21 22 21 21 23 21 19 21 23 21 21 21 22 23
33 33 34 33 31 31 29 27 26 26 27 26 25 23 23 24 25 28 29 28 30 31 29 37 44 45 49 50 45 42 38 33 31 31 30 29 28 27 26 24 23 21 19 17 17 17 18 19 20 21 22 22 22 21 19 21 22 23 23 22 23 24
31 32 34 32 29 28 27 25 25 26 26 25 25 24 24 25 26 30 31 30 32 33 30 36 44 47 50 47 43 44 42 37 34 32 28 25 26 26 25 22 21 20 18 18 18 18 19 18 20 23 24 22 20 18 18 20 21 22 22 22 22 23
30 31 31 30 28 26 25 23 23 25 25 23 24 24 25 27 27 30 33 34 34 33 30 37 44 46 48 44 40 43 44 40 35 29 23 21 24 26 23 20 21 20 18 19 18 18 18 19 22 25 25 23 20 18 18 19 20 21 22 22 22 23
30 30 30 29 28 25 24 23 22 24 25 23 22 23 25 28 28 29 32 37 39 35 31 35 42 45 44 41 39 41 41 37 32 26 23 22 24 25 23 20 22 20 18 18 17 18 18 19 23 25 25 23 20 17 17 19 21 23 24 23 23 23
30 31 30 29 28 26 24 24 25 25 27 25 23 22 24 28 29 29 32 36 40 41 37 35 39 44 42 39 38 38 39 35 29 25 24 24 25 27 25 24 23 18 17 18 16 19 20 21 24 25 25 22 18 16 17 20 24 27 26 26 25 26
30 31 31 31 30 28 25 27 29 28 29 28 24 22 23 27 30 31 34 36 38 40 41 38 37 41 41 39 37 36 38 35 27 25 25 25 25 25 23 23 21 17 17 19 17 20 23 24 25 23 22 20 18 18 20 23 25 26 26 26 26 25
30 30 31 32 31 31 28 29 32 32 32 30 27 24 23 25 28 32 36 38 37 38 41 40 37 39 40 40 39 36 37 34 27 26 26 24 23 22 20 20 23 22 21 20 19 22 24 26 26 24 21 20 20 21 22 25 25 24 23 25 25 22
31 30 30 32 33 34 32 30 34 36 35 32 30 29 26 23 25 30 36 39 39 39 41 42 41 42 41 41 40 38 39 36 29 28 27 25 25 24 23 23 27 28 24 21 21 22 23 23 26 27 25 23 23 23 25 25 24 22 23 26 23 18
32 31 30 32 34 36 36 33 35 38 38 35 33 33 31 26 24 28 35 40 41 42 43 46 47 46 43 40 39 38 41 40 34 31 28 27 27 27 27 26 29 30 26 24 22 20 18 19 23 26 25 24 24 24 26 25 22 21 22 24 22 18
32 32 32 32 34 36 38 38 36 39 41 39 35 35 35 31 26 27 35 41 43 44 47 49 51 51 45 41 40 39 42 44 39 33 32 32 30 29 29 29 32 33 30 29 26 22 21 23 27 28 27 27 26 26 26 25 23 21 22 22 21 20
33 33 33 34 35 36 39 41 40 39 42 42 38 37 38 35 30 28 34 43 46 47 50 52 53 54 49 44 43 41 42 45 42 36 35 37 35 33 31 31 35 36 34 33 32 32 30 30 31 30 31 33 31 29 28 26 23 23 24 24 22 21
34 34 35 35 36 37 39 42 43 41 42 44 41 39 40 39 35 30 33 43 49 49 52 53 52 54 52 48 46 43 43 45 45 43 40 37 34 33 32 32 36 38 37 36 36 37 36 34 33 28 29 33 33 31 29 26 23 24 26 27 24 20
35 36 36 36 37 39 40 42 44 42 42 44 44 42 42 41 39 35 33 42 50 52 54 53 51 52 52 52 50 47 46 46 46 47 44 39 35 33 33 35 38 40 40 39 37 38 37 35 35 31 28 29 31 32 30 26 25 25 25 25 23 20
37 37 36 36 37 39 41 42 43 44 43 43 46 45 44 44 42 40 36 40 50 55 55 52 49 51 53 54 55 53 50 47 46 46 45 42 38 35 35 36 39 42 44 43 40 39 38 34 33 34 32 29 29 29 28 27 26 25 23 22 22 21
38 37 35 35 36 38 40 42 43 45 45 44 46 47 47 47 45 43 40 40 49 56 57 53 49 51 54 57 59 58 54 50 48 47 46 46 43 39 39 38 38 41 44 44 41 39 38 38 36 35 34 32 30 27 27 28 28 26 24 23 22 22
39 37 35 34 35 37 39 41 43 45 46 45 45 47 49 49 48 47 45 42 47 56 58 55 52 52 55 58 60 61 59 55 51 49 48 49 48 45 43 42 41 41 41 42 42 39 38 40 40 37 35 34 30 26 26 28 29 28 27 25 25 24
39 37 34 33 33 35 38 40 42 44 46 46 46 47 48 51 51 50 49 46 47 55 58 58 56 55 56 58 60 61 62 59 55 52 49 49 50 48 47 47 47 44 41 42 44 42 39 39 40 39 37 34 28 24 23 25 27 27 27 27 27 25
39 37 35 33 32 33 35 38 41 43 44 46 47 48 48 50 53 53 53 51 49 53 57 59 60 59 59 60 60 60 61 61 59 55 50 49 51 50 50 50 50 48 44 43 45 44 39 37 39 39 38 36 30 25 24 25 26 26 26 27 26 25
38 37 35 33 33 32 33 35 39 42 44 45 47 49 50 50 53 55 55 55 54 53 54 57 60 60 61 61 61 59 58 58 59 58 55 52 51 52 53 52 52 51 48 46 46 45 39 36 39 40 40 38 33 29 28 28 28 28 28 28 26 25
38 36 34 33 33 32 32 33 36 40 43 45 46 49 52 52 53 54 56 57 59 58 56 56 58 59 60 60 59 58 56 55 56 58 58 56 53 54 54 53 52 52 51 49 48 47 42 38 39 41 41 39 35 33 32 31 30 29 29 28 26 25
38 36 34 33 32 31 32 32 34 37 40 43 45 47 50 53 55 55 56 57 60 63 62 59 58 59 60 60 59 57 54 52 52 53 56 58 57 56 55 53 53 52 52 51 50 50 47 43 41 41 42 40 36 34 33 33 32 29 27 26 24 23
38 37 35 33 32 30 30 31 32 34 37 41 44 46 48 52 55 57 57 57 58 63 66 65 63 62 62 61 59 58 55 53 51 50 52 55 57 58 57 56 54 53 53 53 52 51 50 47 44 43 44 42 39 35 33 34 33 30 26 25 24 24
38 37 36 34 32 29 28 30 31 33 35 38 41 44 47 49 53 57 59 59 58 60 65 68 68 67 65 64 62 60 58 56 55 53 52 52 53 55 55 55 56 55 52 52 53 52 51 51 48 46 45 43 41 37 35 35 34 31 27 26 25 24
39 38 37 35 32 29 28 28 29 31 33 35 38 42 45 48 50 54 58 61 61 60 62 66 70 70 69 67 66 64 62 60 59 58 57 56 54 53 51 50 53 55 54 52 53 53 52 52 51 49 47 45 43 40 39 38 35 31 29 28 26 25
40 38 37 36 33 29 27 27 28 29 31 33 35 38 43 46 48 51 54 59 63 63 62 63 67 71 72 71 69 68 66 64 62 61 61 61 60 58 54 50 49 52 55 55 53 53 52 52 51 50 49 48 45 43 42 39 35 32 31 30 28 27
41 39 38 36 33 30 27 26 26 27 29 31 33 35 39 43 47 49 51 55 59 64 65 64 64 67 70 73 73 71 70 68 66 63 61 61 62 62 61 56 51 50 52 55 54 53 52 52 52 51 51 49 48 47 44 40 36 34 32 31 30 29
41 41 39 36 33 31 28 26 25 26 27 29 31 33 35 38 43 47 50 52 55 59 64 67 67 66 66 70 73 74 73 72 70 67 64 62 61 63 64 61 57 53 51 52 54 53 53 53 53 53 52 50 50 49 45 43 40 38 35 35 35 33
41 41 39 36 33 31 28 26 25 25 25 27 29 31 33 35 38 42 47 50 52 55 59 64 67 68 67 67 69 72 75 75 73 71 70 67 64 64 64 63 61 58 55 53 53 53 54 54 53 54 54 53 52 49 47 46 45 43 41 39 39 37
41 41 39 36 33 31 29 27 26 25 23 24 26 28 31 33 35 37 41 45 50 53 55 58 63 67 69 69 68 69 72 74 75 75 74 73 70 67 66 65 64 63 60 57 55 54 55 55 54 54 55 56 52 49 49 49 48 48 45 42 41 40
41 41 39 36 33 32 30 28 27 26 23 22 22 24 27 30 33 35 37 39 44 48 52 55 58 61 65 68 70 70 70 71 73 75 76 76 75 72 69 68 67 66 65 63 59 57 57 57 56 55 56 57 54 50 51 51 51 51 47 43 42 41
41 41 40 37 34 32 31 29 28 27 25 22 21 21 22 25 28 32 35 37 39 42 47 51 55 58 60 63 66 69 70 70 70 72 75 77 78 77 75 72 70 69 68 66 64 61 59 59 58 56 57 58 56 53 53 53 53 52 48 45 42 41
41 40 40 39 36 34 32 30 29 28 27 24 22 21 20 20 22 26 30 34 37 40 43 46 50 54 57 59 61 64 66 68 69 70 72 75 78 79 79 77 75 73 71 69 67 65 62 61 60 59 58 59 59 57 56 55 54 51 48 46 43 42
41 40 40 40 38 35 33 31 30 30 29 27 25 23 22 21 20 22 24 27 32 36 40 43 46 49 52 55 58 60 62 65 67 69 70 73 76 78 80 81 79 78 75 73 71 68 66 64 62 61 60 60 62 61 59 57 55 53 50 47 45 44
Wind_Direction
252 251 253 256 256 257 261 263 264 262 260 256 252 248 243 238 234 233 234 237 240 235 226 220 214 210 206 205 209 212 216 220 224 230 233 236 241 245 245 244 241 242 243 243 246 252 257 257 260 269 274 278 283 284 285 287 288 287 288 287 285 286
249 248 249 254 258 261 265 266 265 262 260 257 251 246 240 236 233 230 231 234 235 230 222 213 210 209 205 205 209 212 214 217 221 226 229 234 238 240 242 241 238 237 239 239 244 248 250 253 264 272 277 281 282 283 284 286 287 288 292 294 290 289
253 252 253 257 261 264 266 266 264 262 260 257 251 245 238 233 233 233 227 226 226 223 218 210 209 208 202 204 207 206 208 211 220 226 232 240 243 241 240 236 234 235 235 237 242 242 244 257 271 276 277 278 275 276 280 284 286 286 291 295 293 293
258 259 259 257 257 259 259 259 259 258 257 255 251 244 238 228 224 230 224 218 217 216 216 211 210 205 201 204 205 205 208 215 225 229 239 250 246 239 235 232 231 231 232 236 237 235 246 263 273 275 271 267 267 269 276 281 284 285 287 289 293 299
256 257 259 258 255 255 253 251 251 250 250 249 247 243 239 228 217 220 218 210 206 208 214 214 212 205 202 206 208 209 213 220 228 234 248 252 241 233 230 230 229 228 232 235 236 240 254 266 272 274 265 258 263 267 273 282 288 292 291 290 294 301
252 253 256 256 254 253 250 246 245 245 244 242 242 239 237 228 218 215 213 205 200 204 213 214 213 208 206 210 211 210 212 221 230 238 246 242 231 226 226 228 227 226 234 240 245 253 259 267 270 269 262 256 261 265 271 282 289 293 292 291 294 300
252 251 253 254 251 250 248 242 238 240 239 236 237 235 233 228 219 214 212 207 202 204 211 211 211 211 210 212 212 211 215 223 230 231 229 225 223 222 222 226 227 229 238 245 253 256 256 263 263 260 259 256 256 261 268 278 285 291 292 291 296 301
254 251 250 252 250 248 244 236 228 233 235 233 236 236 231 227 220 214 212 209 207 208 211 210 210 211 211 212 211 213 218 222 221 216 214 217 219 221 220 222 229 236 243 245 247 249 250 260 260 253 251 252 256 262 268 278 286 291 291 292 299 304
255 252 249 249 249 246 239 229 220 226 235 234 237 240 232 227 221 213 210 210 210 210 209 209 210 211 209 211 212 215 219 217 211 210 213 215 219 221 216 219 229 232 241 245 242 246 250 259 261 255 250 252 259 267 279 288 290 290 287 290 297 301
256 253 249 247 247 246 236 224 217 221 233 236 239 239 230 225 222 214 210 210 209 208 206 206 208 209 207 209 209 211 213 209 204 206 207 208 211 215 214 222 227 219 233 244 245 250 252 254 257 256 251 251 259 271 287 292 289 286 283 287 292 294
260 256 252 247 245 246 240 223 216 220 229 234 238 236 227 222 224 218 211 211 208 203 202 200 201 202 203 204 201 198 199 199 196 194 195 199 195 194 202 214 218 215 224 233 242 253 254 252 252 250 247 252 264 274 283 284 279 276 282 290 291 292
265 260 255 250 245 244 243 229 217 220 226 230 232 233 231 225 226 222 213 209 205 200 197 194 193 194 194 194 193 190 191 195 197 196 200 205 200 196 198 202 211 213 215 222 236 253 259 256 250 247 249 258 269 274 276 275 268 267 283 294 292 293
269 264 259 253 247 242 242 237 223 219 224 227 225 226 233 233 228 224 215 207 202 197 193 191 192 191 190 189 190 191 193 197 200 205 211 211 209 209 205 205 209 210 212 220 230 245 257 256 251 250 252 261 268 269 269 267 262 264 280 290 293 297
271 267 262 255 250 243 240 239 230 221 221 226 222 219 229 236 232 225 216 206 199 196 193 194 195 193 194 194 192 194 199 202 202 208 219 220 217 214 213 213 209 207 213 219 223 229 238 245 252 254 254 260 266 265 261 258 257 262 270 279 290 296
271 268 265 259 253 247 240 238 235 226 222 225 222 215 221 232 233 227 217 206 197 195 197 200 201 199 200 201 197 198 203 205 205 208 218 226 226 220 220 219 212 212 216 219 222 226 231 237 244 252 254 257 261 259 253 252 256 261 266 270 278 286
273 269 266 261 256 250 244 239 237 231 224 224 223 216 216 225 231 228 219 208 198 196 200 203 205 205 205 206 203 201 203 205 207 209 213 221 226 226 225 222 219 220 221 223 226 228 232 235 238 247 255 254 254 252 247 249 256 263 267 266 267 274
277 273 268 264 259 253 248 243 240 236 229 224 223 219 214 219 228 229 223 212 203 198 200 204 207 208 208 208 207 206 205 204 208 212 214 219 225 228 229 226 224 224 224 226 227 228 230 235 239 244 250 251 252 249 244 246 253 261 269 268 261 262
279 277 273 269 263 257 252 247 243 240 235 227 223 221 216 215 222 228 225 216 209 202 200 204 208 210 211 211 211 211 209 208 210 215 218 223 225 226 228 229 227 227 228 229 228 229 230 233 238 240 244 248 250 250 246 246 251 256 267 270 262 260
280 280 278 273 266 259 254 249 245 241 238 232 225 222 219 216 217 223 225 219 213 206 201 205 210 211 212 214 214 213 212 211 214 218 222 227 228 227 225 227 230 229 230 230 228 230 232 234 237 240 244 244 243 246 247 248 251 255 260 264 265 263
282 282 280 275 267 261 255 250 246 242 240 237 230 224 221 218 216 218 223 221 214 209 205 205 210 213 213 215 217 216 215 213 214 219 223 226 228 228 225 224 227 228 228 227 225 228 233 235 237 240 242 242 242 244 247 248 250 254 254 255 260 264
285 285 282 276 270 263 256 250 246 242 240 237 234 228 223 220 217 216 219 221 216 212 210 208 210 214 215 216 217 219 219 216 215 216 220 224 226 227 225 224 225 226 224 223 223 228 234 235 235 236 236 238 244 249 251 247 246 251 251 250 256 265
287 288 286 281 275 267 259 252 246 242 239 237 235 232 227 222 220 218 217 218 217 215 213 212 212 214 216 218 218 219 220 221 220 219 220 225 227 226 226 225 225 225 224 223 223 227 235 236 232 232 231 232 239 246 249 247 244 246 249 252 258 266
287 289 288 284 281 273 263 254 248 243 239 236 234 232 231 226 222 221 219 217 216 217 217 216 215 216 217 219 220 221 222 224 225 224 224 225 228 229 229 228 226 226 226 225 224 224 230 233 230 230 229 228 233 237 241 246 249 249 249 251 254 262
285 288 287 283 281 277 268 257 250 244 240 236 233 231 231 229 225 223 222 219 216 217 218 218 217 218 219 220 222 223 224 226 227 227 225 225 227 229 230 230 229 228 227 226 225 222 224 228 230 230 228 227 230 233 236 243 250 254 251 244 245 256
284 286 286 281 278 276 270 261 252 246 241 237 234 231 230 230 228 225 224 222 219 217 218 219 219 219 220 221 222 222 222 223 224 225 224 224 226 229 230 231 231 232 231 228 225 223 222 225 229 229 227 227 229 232 237 241 248 255 251 243 246 255
282 284 285 281 276 275 272 265 256 248 244 239 235 232 230 229 229 228 226 225 223 220 219 219 220 221 221 222 222 222 222 221 221 221 223 225 227 229 231 232 232 233 233 229 227 225 222 222 226 226 226 227 227 231 237 240 245 249 245 243 248 254
281 283 284 282 276 274 273 268 260 252 246 241 237 233 231 229 228 228 228 227 226 224 222 220 220 221 222 223 225 226 225 225 223 222 221 223 226 228 230 232 232 231 230 227 227 227 224 222 223 224 226 227 226 230 235 238 241 242 237 237 243 247
282 282 282 282 277 273 273 270 263 256 249 243 239 235 232 231 229 228 228 229 228 227 225 223 222 221 221 223 225 227 228 228 228 227 225 224 224 226 229 231 230 228 227 227 227 227 225 223 223 223 225 226 226 229 233 234 237 237 233 232 236 240
281 281 280 280 277 274 273 272 267 259 253 246 241 237 234 232 231 229 228 229 230 230 228 226 224 223 223 223 224 226 228 229 229 229 229 228 227 228 230 231 229 227 227 228 227 227 225 223 222 221 223 224 225 228 230 231 231 232 230 228 230 234
278 278 278 278 276 275 273 272 271 264 257 250 244 239 235 233 232 231 229 228 229 230 231 230 228 226 225 224 224 225 227 228 228 228 228 229 229 229 230 231 230 227 226 227 227 228 227 223 220 219 219 220 222 225 227 227 228 229 229 228 229 232
276 276 275 275 274 275 273 273 273 269 263 255 248 243 238 235 232 231 230 230 229 229 231 232 231 230 227 226 225 225 226 227 228 228 228 228 229 229 229 229 230 228 227 226 227 228 227 224 221 218 217 217 220 223 223 224 226 227 228 231 232 233
274 273 272 272 273 274 274 274 274 272 267 262 254 247 242 237 234 232 231 230 230 230 230 231 232 233 232 229 227 226 226 227 228 228 229 229 228 228 228 228 228 228 227 227 227 227 227 225 222 219 217 217 220 221 221 223 224 224 226 230 231 230
272 270 270 270 271 273 273 273 274 272 269 265 261 254 247 242 238 235 233 231 231 231 231 231 232 233 234 234 232 229 227 227 227 229 229 229 228 228 227 227 226 226 227 228 227 227 227 226 223 220 217 217 219 220 219 222 223 223 225 227 227 225
270 269 268 269 270 271 272 272 273 273 271 267 263 259 254 249 244 240 237 234 232 232 232 232 232 232 233 234 235 234 231 229 228 228 229 230 229 228 227 226 226 226 227 228 228 228 227 227 225 221 217 216 218 218 219 221 222 223 224 225 224 222
267 268 267 268 268 269 270 271 271 272 272 270 267 262 257 253 250 246 243 240 237 234 233 233 233 233 234 234 235 236 235 233 231 229 228 229 229 229 228 227 226 226 227 227 227 227 227 227 226 223 219 216 217 217 218 220 222 223 223 223 221 219
264 265 266 267 267 267 268 269 270 270 270 271 270 267 263 258 255 252 249 245 242 239 237 235 234 234 234 235 235 235 236 236 235 232 230 229 229 229 229 228 227 226 226 226 224 225 226 227 227 225 220 217 217 217 216 218 221 223 223 221 219 219
260 261 263 266 266 265 266 267 268 268 268 268 269 268 267 264 262 260 256 252 248 245 242 240 238 236 235 235 235 236 236 236 236 235 233 231 229 229 229 229 228 227 226 224 222 223 225 226 227 226 222 219 217 217 217 217 220 222 221 220 220 221
Height
10718 10716 10715 10715 10716 10715 10716 10717 10718 10719 10720 10721 10723 10725 10727 10729 10731 10732 10733 10736 10739 10741 10744 10747 10751 10755 10760 10765 10769 10773 10776 10779 10782 10784 10786 10787 10788 10789 10790 10792 10794 10795 10797 10799 10800 10802 10803 10803 10803 10803 10803 10803 10804 10804 10804 10804 10804 10802 10801 10800 10799 10799
10714 10714 10713 10713 10713 10714 10714 10715 10716 10717 10719 10720 10721 10723 10725 10726 10728 10728 10730 10733 10736 10738 10741 10744 10747 10752 10757 10762 10766 10770 10774 10777 10780 10782 10783 10784 10785 10787 10788 10789 10791 10792 10794 10795 10797 10798 10799 10800 10800 10800 10801 10801 10801 10801 10802 10802 10801 10800 10799 10798 10797 10797
10711 10711 10711 10711 10711 10712 10712 10713 10714 10715 10717 10718 10719 10721 10723 10726 10727 10725 10727 10730 10732 10735 10738 10741 10744 10749 10755 10760 10764 10768 10771 10774 10777 10779 10780 10782 10783 10784 10785 10787 10788 10790 10791 10792 10794 10795 10796 10797 10797 10798 10798 10798 10799 10799 10800 10800 10799 10798 10797 10796 10795 10795
10708 10708 10708 10709 10710 10711 10711 10711 10712 10713 10714 10716 10717 10719 10721 10723 10724 10722 10723 10726 10730 10733 10736 10739 10743 10747 10752 10756 10761 10766 10769 10771 10774 10776 10777 10779 10780 10781 10783 10785 10786 10788 10789 10790 10791 10793 10794 10795 10795 10796 10796 10797 10797 10798 10798 10798 10797 10796 10795 10795 10794 10793
10706 10706 10706 10707 10708 10709 10710 10710 10711 10711 10712 10714 10715 10716 10717 10719 10719 10718 10720 10724 10727 10731 10735 10738 10741 10745 10749 10753 10758 10762 10766 10769 10771 10773 10775 10776 10777 10779 10781 10783 10785 10786 10787 10788 10790 10791 10792 10792 10793 10794 10795 10795 10795 10796 10797 10796 10795 10794 10794 10793 10793 10792
10705 10705 10704 10706 10706 10707 10708 10709 10709 10710 10711 10712 10713 10713 10714 10714 10715 10716 10719 10722 10725 10728 10732 10735 10739 10743 10747 10751 10755 10759 10763 10766 10769 10771 10772 10773 10775 10777 10780 10782 10783 10784 10785 10786 10789 10790 10790 10790 10791 10792 10793 10794 10794 10795 10795 10795 10794 10793 10793 10792 10792 10791
10703 10703 10703 10704 10704 10705 10706 10707 10708 10708 10709 10710 10711 10712 10712 10712 10713 10715 10718 10721 10724 10726 10729 10733 10736 10740 10744 10749 10752 10756 10759 10763 10766 10769 10770 10771 10773 10776 10778 10781 10782 10782 10783 10785 10787 10788 10788 10788 10789 10790 10791 10793 10793 10794 10794 10793 10793 10793 10792 10791 10790 10789
10701 10701 10701 10701 10702 10703 10704 10705 10706 10707 10707 10708 10709 10710 10710 10710 10711 10714 10716 10719 10721 10724 10728 10731 10734 10737 10741 10746 10750 10754 10757 10761 10763 10765 10767 10769 10771 10772 10775 10778 10780 10782 10783 10784 10785 10784 10785 10787 10789 10789 10790 10791 10792 10792 10792 10792 10791 10791 10791 10790 10789 10788
10698 10698 10699 10699 10700 10701 10702 10703 10704 10705 10705 10706 10707 10708 10708 10709 10710 10712 10714 10716 10718 10721 10725 10729 10732 10735 10738 10743 10747 10751 10755 10758 10760 10762 10764 10766 10767 10769 10772 10775 10778 10782 10783 10782 10782 10783 10783 10786 10788 10788 10788 10789 10790 10790 10790 10790 10790 10789 10789 10788 10787 10786
10696 10696 10696 10697 10697 10698 10700 10701 10702 10703 10703 10704 10705 10706 10707 10707 10708 10710 10711 10713 10716 10718 10722 10727 10730 10733 10737 10741 10744 10748 10752 10755 10758 10760 10762 10763 10765 10767 10770 10773 10778 10784 10784 10781 10781 10782 10783 10785 10786 10786 10786 10787 10787 10788 10788 10788 10787 10787 10787 10787 10785 10784
10694 10694 10694 10695 10695 10696 10697 10698 10699 10700 10701 10702 10703 10704 10705 10706 10707 10708 10710 10711 10714 10716 10720 10724 10728 10732 10735 10738 10741 10745 10748 10752 10755 10758 10760 10762 10763 10764 10766 10770 10776 10782 10783 10781 10780 10779 10781 10783 10784 10784 10784 10784 10785 10785 10786 10786 10786 10785 10785 10785 10784 10782
10691 10692 10692 10693 10693 10694 10694 10695 10696 10697 10698 10699 10700 10702 10703 10704 10705 10706 10708 10709 10712 10714 10717 10721 10725 10730 10733 10735 10738 10740 10743 10747 10751 10755 10758 10760 10761 10761 10762 10765 10771 10776 10778 10779 10778 10776 10778 10780 10781 10782 10781 10782 10782 10783 10784 10784 10784 10783 10783 10782 10782 10781
10687 10688 10689 10689 10690 10690 10691 10692 10693 10694 10695 10696 10698 10699 10700 10701 10703 10704 10705 10707 10709 10712 10715 10718 10722 10726 10730 10732 10734 10736 10738 10742 10746 10751 10754 10756 10758 10759 10760 10763 10766 10771 10774 10777 10777 10775 10776 10777 10778 10778 10778 10779 10780 10780 10781 10781 10781 10780 10780 10780 10779 10779
10684 10684 10685 10685 10686 10687 10687 10688 10689 10690 10691 10692 10694 10696 10698 10699 10700 10702 10703 10705 10707 10710 10713 10716 10719 10722 10726 10729 10731 10732 10734 10737 10741 10746 10750 10752 10754 10756 10759 10762 10764 10767 10769 10772 10775 10775 10775 10774 10774 10774 10774 10775 10776 10777 10778 10777 10777 10777 10777 10777 10777 10777
10680 10680 10681 10681 10681 10682 10682 10683 10684 10685 10687 10688 10690 10692 10695 10696 10697 10699 10700 10702 10705 10707 10710 10712 10715 10719 10722 10725 10727 10728 10731 10734 10737 10741 10745 10748 10750 10753 10756 10759 10761 10763 10765 10768 10770 10772 10772 10770 10770 10769 10769 10770 10772 10774 10774 10774 10774 10774 10774 10775 10775 10775
10676 10676 10676 10676 10677 10677 10677 10678 10679 10681 10683 10685 10687 10689 10691 10693 10694 10696 10698 10700 10702 10704 10706 10709 10712 10715 10718 10721 10723 10725 10727 10730 10734 10737 10740 10743 10746 10749 10752 10755 10757 10760 10762 10763 10765 10768 10769 10767 10767 10767 10766 10767 10768 10769 10771 10771 10771 10772 10772 10772 10772 10772
10672 10671 10672 10672 10672 10672 10672 10673 10675 10677 10679 10681 10683 10685 10687 10690 10691 10693 10695 10697 10699 10701 10703 10705 10708 10711 10714 10716 10719 10721 10723 10726 10729 10733 10736 10739 10743 10746 10748 10751 10753 10755 10758 10759 10760 10763 10764 10764 10764 10765 10764 10763 10764 10765 10767 10768 10769 10769 10770 10770 10769 10769
10667 10667 10668 10668 10668 10668 10668 10669 10670 10672 10674 10677 10679 10681 10683 10686 10688 10690 10692 10695 10696 10697 10699 10702 10705 10707 10710 10712 10714 10717 10719 10722 10725 10728 10732 10735 10738 10742 10744 10746 10748 10751 10753 10755 10757 10758 10759 10758 10759 10760 10760 10760 10761 10762 10764 10765 10766 10766 10767 10767 10766 10767
10663 10663 10664 10664 10663 10663 10663 10664 10665 10666 10669 10672 10674 10677 10679 10681 10684 10686 10688 10691 10693 10694 10696 10698 10701 10704 10706 10708 10710 10712 10715 10718 10721 10724 10727 10730 10734 10737 10740 10742 10744 10746 10748 10751 10755 10756 10755 10753 10753 10755 10756 10756 10757 10759 10760 10761 10762 10763 10763 10764 10764 10764
10659 10659 10659 10658 10657 10657 10657 10658 10659 10661 10663 10666 10669 10672 10674 10677 10679 10682 10684 10687 10689 10691 10693 10694 10697 10700 10702 10704 10707 10709 10711 10713 10716 10720 10723 10726 10729 10732 10735 10737 10739 10742 10745 10748 10750 10750 10749 10748 10749 10752 10752 10752 10754 10756 10757 10758 10759 10760 10761 10761 10761 10762
10655 10655 10655 10654 10653 10652 10652 10653 10654 10655 10658 10660 10663 10667 10669 10672 10675 10677 10680 10682 10685 10687 10689 10691 10693 10696 10698 10701 10703 10706 10709 10711 10713 10716 10719 10722 10724 10727 10730 10732 10734 10738 10741 10743 10745 10744 10744 10745 10747 10749 10748 10748 10751 10753 10754 10755 10756 10757 10758 10758 10758 10759
10651 10651 10650 10649 10648 10648 10647 10648 10649 10650 10652 10655 10658 10661 10664 10667 10670 10673 10675 10678 10680 10683 10685 10687 10689 10692 10694 10697 10700 10703 10705 10708 10710 10713 10716 10718 10720 10722 10724 10727 10729 10733 10736 10738 10740 10740 10741 10743 10744 10745 10745 10745 10748 10750 10751 10752 10753 10755 10755 10755 10756 10756
10648 10647 10647 10646 10644 10644 10643 10643 10644 10645 10647 10649 10652 10654 10658 10661 10664 10668 10670 10673 10675 10678 10681 10683 10686 10688 10690 10693 10696 10699 10702 10705 10707 10710 10713 10715 10716 10718 10719 10721 10724 10728 10731 10733 10735 10737 10738 10739 10740 10741 10741 10742 10745 10747 10748 10749 10750 10752 10752 10752 10753 10754
10645 10644 10643 10642 10641 10640 10639 10639 10639 10640 10642 10644 10646 10649 10651 10655 10658 10661 10664 10667 10670 10673 10675 10678 10681 10684 10686 10689 10692 10694 10698 10700 10702 10705 10708 10710 10711 10713 10714 10717 10720 10723 10726 10728 10730 10733 10734 10735 10736 10737 10738 10740 10742 10744 10745 10746 10747 10748 10748 10749 10750 10752
10641 10640 10640 10639 10638 10636 10635 10635 10635 10635 10636 10638 10641 10643 10646 10648 10652 10655 10658 10661 10664 10666 10669 10672 10675 10678 10681 10683 10686 10689 10692 10695 10697 10700 10702 10705 10706 10708 10710 10713 10715 10718 10721 10723 10726 10728 10729 10731 10733 10734 10735 10737 10739 10741 10742 10743 10744 10745 10746 10747 10749 10751
10638 10637 10636 10636 10635 10633 10632 10631 10631 10631 10632 10633 10636 10638 10640 10643 10645 10649 10652 10655 10657 10660 10662 10666 10669 10672 10674 10677 10680 10683 10686 10689 10692 10695 10697 10699 10701 10703 10705 10708 10711 10713 10715 10718 10720 10722 10725 10728 10729 10730 10731 10733 10735 10737 10739 10740 10741 10743 10744 10746 10748 10749
10634 10633 10632 10632 10631 10630 10629 10628 10627 10627 10628 10629 10631 10633 10635 10637 10640 10642 10645 10648 10651 10653 10656 10659 10662 10665 10669 10672 10675 10678 10681 10684 10687 10689 10692 10694 10696 10698 10700 10703 10706 10708 10710 10712 10715 10717 10721 10723 10724 10725 10727 10729 10731 10733 10735 10737 10737 10740 10742 10743 10745 10747
10630 10630 10629 10628 10628 10627 10626 10624 10623 10623 10624 10624 10626 10627 10630 10632 10634 10637 10639 10642 10645 10648 10650 10653 10656 10659 10663 10666 10669 10672 10675 10678 10681 10683 10686 10688 10690 10692 10694 10697 10701 10703 10705 10707 10710 10712 10716 10718 10719 10721 10723 10724 10726 10728 10731 10733 10735 10737 10739 10740 10743 10745
10626 10626 10626 10625 10624 10624 10623 10621 10620 10620 10620 10620 10621 10622 10624 10627 10629 10631 10634 10636 10639 10641 10644 10647 10650 10653 10657 10660 10663 10666 10670 10673 10675 10678 10680 10682 10684 10686 10689 10693 10696 10698 10699 10702 10705 10707 10710 10713 10715 10716 10718 10719 10721 10723 10726 10730 10732 10734 10735 10738 10740 10742
10622 10622 10622 10622 10621 10620 10620 10618 10617 10616 10616 10616 10617 10618 10619 10621 10624 10626 10628 10631 10633 10635 10638 10640 10643 10647 10650 10654 10657 10660 10664 10667 10669 10672 10674 10676 10678 10681 10684 10688 10691 10693 10695 10697 10700 10702 10705 10708 10710 10711 10713 10716 10718 10720 10723 10727 10729 10731 10732 10734 10735 10738
10619 10618 10617 10618 10617 10617 10616 10615 10614 10612 10612 10612 10612 10613 10615 10617 10618 10621 10623 10625 10627 10629 10632 10634 10637 10640 10644 10647 10650 10654 10657 10660 10663 10666 10669 10670 10673 10675 10678 10682 10685 10688 10690 10692 10695 10697 10700 10702 10705 10707 10710 10712 10714 10716 10720 10723 10725 10726 10727 10729 10731 10733
10614 10613 10613 10614 10614 10613 10613 10612 10611 10609 10608 10608 10608 10609 10610 10612 10614 10616 10618 10620 10622 10624 10626 10628 10630 10633 10637 10640 10643 10647 10650 10652 10656 10660 10662 10664 10666 10669 10671 10675 10679 10682 10685 10687 10690 10692 10694 10697 10700 10703 10705 10707 10710 10712 10715 10717 10719 10720 10722 10723 10725 10729
10610 10609 10610 10610 10610 10610 10609 10608 10607 10606 10605 10605 10604 10605 10606 10607 10609 10611 10613 10615 10617 10619 10620 10622 10624 10626 10629 10632 10636 10639 10643 10646 10649 10652 10654 10657 10660 10662 10665 10669 10672 10676 10679 10682 10685 10687 10689 10692 10695 10698 10700 10702 10705 10707 10709 10711 10713 10714 10716 10718 10720 10724
10606 10605 10606 10606 10606 10606 10605 10605 10604 10603 10602 10602 10601 10601 10602 10603 10604 10606 10608 10610 10612 10613 10615 10616 10618 10620 10622 10625 10628 10631 10635 10638 10642 10645 10647 10649 10652 10655 10659 10662 10665 10669 10672 10675 10679 10682 10684 10687 10690 10693 10695 10697 10700 10702 10704 10706 10707 10709 10711 10713 10716 10720
10603 10601 10601 10602 10602 10602 10602 10601 10601 10600 10599 10598 10598 10598 10598 10599 10600 10601 10603 10604 10606 10607 10609 10610 10611 10613 10615 10618 10620 10623 10626 10630 10634 10637 10639 10642 10645 10648 10651 10654 10658 10662 10665 10669 10673 10676 10679 10681 10684 10687 10690 10692 10695 10697 10699 10701 10703 10705 10707 10709 10712 10715
10598 10597 10597 10597 10598 10598 10598 10598 10597 10596 10596 10595 10595 10595 10595 10595 10596 10597 10598 10599 10600 10601 10603 10604 10605 10607 10609 10611 10614 10616 10619 10621 10625 10628 10631 10634 10637 10639 10642 10646 10650 10654 10658 10662 10666 10669 10672 10675 10678 10681 10684 10687 10689 10692 10695 10697 10699 10701 10704 10707 10709 10712
10593 10593 10593 10592 10593 10594 10594 10594 10594 10593 10592 10591 10591 10591 10591 10592 10592 10592 10593 10593 10594 10595 10597 10598 10600 10601 10603 10605 10607 10609 10611 10613 10616 10619 10622 10625 10628 10631 10634 10637 10641 10645 10649 10654 10658 10661 10664 10668 10671 10675 10679 10681 10684 10687 10690 10692 10694 10697 10701 10704 10706 10709